• In Italy
  • List of Countries
  • For 7 days
  • Water Temperature
  • Satellite Maps
  • Weather Map
  • Weather Widgets
  • user-avatar
    Login

    Hourly Weather Novotroick

    Today, 21 October, Sunday

    Time Temperature Precipitation Wind Pressure Humidity
    00:00 +3°C° 0 mm 2 mps 756 mmHg 94%
    01:00 +3°C° 0 mm 2 mps 756 mmHg 95%
    02:00 +2°C° 0 mm 2 mps 756 mmHg 95%
    03:00 +2°C° 0 mm 2 mps 757 mmHg 96%
    04:00 +2°C° 0 mm 2 mps 757 mmHg 96%
    05:00 +1°C° 0 mm 2 mps 758 mmHg 96%
    06:00 +2°C° 0 mm 1 mps 758 mmHg 96%
    07:00 +3°C° 0 mm 1 mps 758 mmHg 92%
    08:00 +4°C° 0 mm 1 mps 759 mmHg 87%
    09:00 +5°C° 0 mm 1 mps 759 mmHg 82%
    10:00 +6°C° 0 mm 1 mps 759 mmHg 76%
    11:00 +5°C° 0 mm 2 mps 760 mmHg 70%
    12:00 +6°C° 0 mm 2 mps 760 mmHg 64%
    13:00 +6°C° 0 mm 2 mps 760 mmHg 63%
    14:00 +7°C° 0 mm 1 mps 760 mmHg 63%
    15:00 +7°C° 0 mm 1 mps 760 mmHg 63%
    16:00 +6°C° 0 mm 1 mps 761 mmHg 68%
    17:00 +5°C° 0 mm 1 mps 761 mmHg 73%
    18:00 +4°C° 0 mm 1 mps 761 mmHg 78%
    19:00 +3°C° 0 mm 0 mps 761 mmHg 79%
    20:00 +2°C° 0 mm 0 mps 761 mmHg 81%
    21:00 +2°C° 0 mm 0 mps 761 mmHg 83%
    22:00 +2°C° 0 mm 0 mps 762 mmHg 84%
    23:00 +1°C° 0 mm 0 mps 762 mmHg 86%

    Tomorrow, 22 October, Monday

    Time Temperature Precipitation Wind Pressure Humidity
    00:00 +1°C° 0 mm 0 mps 762 mmHg 87%
    01:00 +1°C° 0 mm 0 mps 762 mmHg 88%
    02:00 +1°C° 0 mm 0 mps 762 mmHg 89%
    03:00 +1°C° 0 mm 1 mps 762 mmHg 90%
    04:00 +1°C° 0 mm 1 mps 761 mmHg 91%
    05:00 +1°C° 0 mm 1 mps 761 mmHg 91%
    06:00 -1°C° 0 mm 2 mps 761 mmHg 92%
    07:00 +1°C° 0 mm 2 mps 761 mmHg 88%
    08:00 +2°C° 0 mm 2 mps 761 mmHg 83%
    09:00 +2°C° 0 mm 3 mps 761 mmHg 79%
    10:00 +4°C° 0 mm 3 mps 760 mmHg 74%
    11:00 +5°C° 0 mm 4 mps 760 mmHg 70%
    12:00 +6°C° 0 mm 4 mps 760 mmHg 66%
    13:00 +6°C° 0 mm 4 mps 759 mmHg 66%
    14:00 +6°C° 0 mm 4 mps 758 mmHg 67%
    15:00 +6°C° 0 mm 4 mps 758 mmHg 68%
    16:00 +5°C° 0 mm 4 mps 757 mmHg 72%
    17:00 +5°C° 0 mm 4 mps 757 mmHg 76%
    18:00 +4°C° 0 mm 4 mps 756 mmHg 80%
    19:00 +4°C° 0 mm 4 mps 756 mmHg 80%
    20:00 +4°C° 0 mm 4 mps 755 mmHg 81%
    21:00 +4°C° 0 mm 4 mps 755 mmHg 81%
    22:00 +4°C° 0 mm 4 mps 754 mmHg 82%
    23:00 +3°C° 0 mm 4 mps 754 mmHg 84%

    Day after tomorrow, 23 October, Tuesday

    Time Temperature Precipitation Wind Pressure Humidity
    00:00 +3°C° 0 mm 4 mps 753 mmHg 85%
    01:00 +3°C° 0 mm 4 mps 753 mmHg 88%
    02:00 +3°C° 0 mm 4 mps 753 mmHg 90%
    03:00 +3°C° 0 mm 4 mps 752 mmHg 93%
    04:00 +3°C° 0 mm 4 mps 752 mmHg 93%
    05:00 +4°C° 0 mm 4 mps 751 mmHg 93%
    06:00 +4°C° 0 mm 4 mps 751 mmHg 94%
    07:00 +5°C° 0 mm 4 mps 750 mmHg 92%
    08:00 +6°C° 0 mm 5 mps 750 mmHg 90%
    09:00 +7°C° 0 mm 5 mps 749 mmHg 88%
    10:00 +7°C° 0.5 mm 5 mps 749 mmHg 88%
    11:00 +7°C° 0.5 mm 5 mps 748 mmHg 88%
    12:00 +7°C° 0.5 mm 5 mps 748 mmHg 88%
    13:00 +7°C° 0.9 mm 5 mps 747 mmHg 89%
    14:00 +7°C° 0.9 mm 5 mps 747 mmHg 89%
    15:00 +7°C° 0.9 mm 5 mps 746 mmHg 90%
    16:00 +7°C° 1.2 mm 5 mps 746 mmHg 90%
    17:00 +7°C° 1.2 mm 4 mps 745 mmHg 91%
    18:00 +6°C° 1.2 mm 4 mps 745 mmHg 92%
    19:00 +6°C° 0.7 mm 4 mps 744 mmHg 92%
    20:00 +6°C° 0.7 mm 4 mps 744 mmHg 93%
    21:00 +7°C° 0.7 mm 3 mps 743 mmHg 93%
    22:00 +7°C° 0.2 mm 3 mps 743 mmHg 94%
    23:00 +7°C° 0.2 mm 2 mps 742 mmHg 95%

    24 October, Wednesday

    Time Temperature Precipitation Wind Pressure Humidity
    00:00 +7°C° 0.2 mm 2 mps 742 mmHg 96%
    01:00 +7°C° 0.2 mm 2 mps 742 mmHg 96%
    02:00 +6°C° 0.2 mm 2 mps 742 mmHg 97%
    03:00 +6°C° 0.2 mm 2 mps 741 mmHg 97%
    04:00 +5°C° 0 mm 2 mps 741 mmHg 97%
    05:00 +5°C° 0 mm 2 mps 741 mmHg 96%
    06:00 +4°C° 0 mm 2 mps 741 mmHg 96%
    07:00 +4°C° 0 mm 3 mps 742 mmHg 92%
    08:00 +4°C° 0 mm 3 mps 742 mmHg 88%
    09:00 +4°C° 0 mm 4 mps 742 mmHg 84%
    10:00 +5°C° 0 mm 4 mps 742 mmHg 79%
    11:00 +6°C° 0 mm 4 mps 742 mmHg 74%
    12:00 +7°C° 0 mm 4 mps 742 mmHg 70%
    13:00 +7°C° 0 mm 4 mps 742 mmHg 70%
    14:00 +7°C° 0 mm 4 mps 742 mmHg 71%
    15:00 +7°C° 0 mm 4 mps 742 mmHg 72%
    16:00 +7°C° 0.2 mm 4 mps 742 mmHg 75%
    17:00 +7°C° 0.2 mm 3 mps 742 mmHg 78%
    18:00 +7°C° 0.2 mm 3 mps 742 mmHg 81%
    19:00 +7°C° 0 mm 3 mps 742 mmHg 83%
    20:00 +5°C° 0 mm 3 mps 743 mmHg 84%
    21:00 +5°C° 0 mm 3 mps 743 mmHg 86%
    22:00 +5°C° 0.1 mm 3 mps 743 mmHg 85%
    23:00 +5°C° 0.1 mm 3 mps 743 mmHg 84%

    25 October, Thursday

    Time Temperature Precipitation Wind Pressure Humidity
    00:00 +7°C° 0.1 mm 3 mps 743 mmHg 83%
    01:00 +7°C° 0.1 mm 3 mps 742 mmHg 84%
    02:00 +6°C° 0.1 mm 4 mps 742 mmHg 84%
    03:00 +6°C° 0.1 mm 4 mps 742 mmHg 85%
    04:00 +6°C° 0.1 mm 4 mps 742 mmHg 86%
    05:00 +6°C° 0.1 mm 4 mps 741 mmHg 87%
    06:00 +6°C° 0.1 mm 5 mps 741 mmHg 87%
    07:00 +7°C° 0.2 mm 5 mps 741 mmHg 87%
    08:00 +8°C° 0.2 mm 6 mps 740 mmHg 88%
    09:00 +8°C° 0.2 mm 6 mps 740 mmHg 88%
    10:00 +8°C° 0.9 mm 6 mps 740 mmHg 88%
    11:00 +8°C° 0.9 mm 6 mps 739 mmHg 89%
    12:00 +9°C° 0.9 mm 6 mps 739 mmHg 89%
    13:00 +9°C° 0.9 mm 6 mps 739 mmHg 89%
    14:00 +9°C° 0.9 mm 6 mps 738 mmHg 89%
    15:00 +9°C° 0.9 mm 6 mps 738 mmHg 89%
    16:00 +9°C° 0.9 mm 5 mps 738 mmHg 87%
    17:00 +9°C° 0.9 mm 5 mps 737 mmHg 85%
    18:00 +9°C° 0.9 mm 5 mps 737 mmHg 83%
    19:00 +9°C° 0.4 mm 5 mps 736 mmHg 81%
    20:00 +9°C° 0.4 mm 5 mps 736 mmHg 79%
    21:00 +10°C° 0.4 mm 4 mps 735 mmHg 77%
    22:00 +9°C° 0.4 mm 5 mps 735 mmHg 77%
    23:00 +9°C° 0.4 mm 5 mps 734 mmHg 77%

    26 October, Friday

    Time Temperature Precipitation Wind Pressure Humidity
    00:00 +9°C° 0.4 mm 5 mps 734 mmHg 77%
    01:00 +9°C° 0.8 mm 5 mps 734 mmHg 81%
    02:00 +9°C° 0.8 mm 5 mps 734 mmHg 84%
    03:00 +8°C° 0.8 mm 5 mps 734 mmHg 87%
    04:00 +8°C° 0.3 mm 5 mps 734 mmHg 84%
    05:00 +7°C° 0.3 mm 5 mps 734 mmHg 81%
    06:00 +6°C° 0.3 mm 4 mps 734 mmHg 79%
    07:00 +6°C° 0 mm 5 mps 735 mmHg 78%
    08:00 +5°C° 0 mm 5 mps 735 mmHg 78%
    09:00 +5°C° 0 mm 5 mps 735 mmHg 78%
    10:00 +5°C° 0 mm 6 mps 736 mmHg 75%
    11:00 +5°C° 0 mm 6 mps 736 mmHg 73%
    12:00 +5°C° 0 mm 6 mps 736 mmHg 70%
    13:00 +5°C° 0 mm 6 mps 737 mmHg 69%
    14:00 +5°C° 0 mm 6 mps 737 mmHg 69%
    15:00 +5°C° 0 mm 6 mps 738 mmHg 68%
    16:00 +4°C° 0 mm 6 mps 738 mmHg 69%
    17:00 +4°C° 0 mm 6 mps 738 mmHg 71%
    18:00 +4°C° 0 mm 6 mps 739 mmHg 72%
    19:00 +3°C° 0 mm 5 mps 739 mmHg 74%
    20:00 +3°C° 0 mm 5 mps 739 mmHg 76%
    21:00 +3°C° 0 mm 5 mps 739 mmHg 79%
    22:00 +2°C° 0 mm 5 mps 740 mmHg 80%
    23:00 +3°C° 0 mm 4 mps 740 mmHg 81%
    Show more